Lancaster, PA

3:55 PM EST on January 22, 2018 (GMT -0500)
Lancaster

Weather History for KLNS - February, 2013

Change the Weather History Date:

Saturday, February 23, 2013

  Actual Average Record
Temperature  
Mean Temperature 38 °F -  
Max Temperature 44 °F 50 °F 73 °F (2017)
Min Temperature 32 °F 30 °F 8 °F (2011)
Degree Days  
Heating Degree Days 27    
Moisture  
Dew Point 36 °F    
Average Humidity 93    
Maximum Humidity 97    
Minimum Humidity 85    
Precipitation  
Precipitation 0.04 in - - ()
Sea Level Pressure  
Sea Level Pressure 29.97 in    
Wind  
Wind Speed 4 mph (NE)    
Max Wind Speed 7 mph    
Max Gust Speed -    
Visibility 2 miles    
Events Fog , Rain    
Averages and records for this station are not official NWS values.
T = Trace of Precipitation, MM = Missing Value Source: NWS Daily Summary

Daily Weather History Graph

Daily Weather History Graph

Search for Another Location

Airport or City:

Trip Planner

Search our weather history database for the weather conditions in past years. The results will help you decide how hot, cold, wet, or windy it might be!

Date:

Astronomy

Feb. 23, 2013 Rise Set
Actual Time 6:47 AM EST 5:50 PM EST
Civil Twilight 6:19 AM EST 6:17 PM EST
Nautical Twilight 5:48 AM EST 6:49 PM EST
Astronomical Twilight 5:16 AM EST 7:20 PM EST
Moon 3:58 PM EST (2/23) 5:08 AM EST (2/23)
Length of Visible Light 11h 58m
Length of Day
11h 03m
Waxing Gibbous, 95% of the Moon is Illuminated
Feb 23
Waxing Gibbous
Feb 25
Full
Mar 4
Last Quarter
Mar 11
New
Mar 19
First Quarter

Hourly Weather History & Observations

Time (EST) Temp. Windchill Dew Point Humidity Pressure Visibility Wind Dir Wind Speed Gust Speed Precip Events Conditions
12:53 AM 32.0 °F 26.4 °F 28.9 °F 88% 30.22 in 3.0 mi ESE 5.8 mph - N/A   Overcast
1:08 AM 32.0 °F 27.5 °F 30.2 °F 93% 30.20 in 3.0 mi ESE 4.6 mph - N/A   Overcast
1:23 AM 32.0 °F 26.4 °F 30.2 °F 93% 30.20 in 3.0 mi ESE 5.8 mph - N/A   Overcast
1:32 AM 32.0 °F 26.4 °F 30.2 °F 93% 30.19 in 2.0 mi ESE 5.8 mph - N/A   Overcast
1:53 AM 32.0 °F 25.6 °F 30.0 °F 92% 30.19 in 2.0 mi ESE 6.9 mph - N/A   Overcast
2:30 AM 32.0 °F 28.7 °F 30.2 °F 93% 30.17 in 1.5 mi East 3.5 mph - N/A   Overcast
2:53 AM 32.0 °F 28.7 °F 30.9 °F 96% 30.17 in 1.0 mi East 3.5 mph - N/A   Overcast
3:53 AM 32.0 °F - 30.9 °F 96% 30.14 in 0.5 mi Calm Calm - N/A Fog Fog
4:53 AM 32.0 °F 28.7 °F 30.9 °F 96% 30.12 in 0.8 mi NE 3.5 mph - N/A   Overcast
5:53 AM 33.1 °F - 30.9 °F 92% 30.11 in 0.5 mi Calm Calm - 0.01 in Fog Fog
6:08 AM 33.8 °F 30.8 °F 30.2 °F 87% 30.09 in 0.2 mi ENE 3.5 mph - N/A Fog Fog
6:46 AM 33.8 °F - 32.0 °F 93% 30.09 in 0.5 mi Calm Calm - N/A Fog Fog
6:53 AM 33.1 °F - 32.0 °F 96% 30.10 in 0.5 mi Calm Calm - N/A Fog Fog
7:02 AM 33.8 °F - 32.0 °F 93% 30.08 in 0.2 mi Calm Calm - 0.00 in Fog Fog
7:53 AM 34.0 °F - 32.0 °F 92% 30.09 in 0.5 mi Calm Calm - 0.01 in Fog Fog
8:53 AM 35.1 °F 32.2 °F 33.1 °F 92% 30.06 in 0.8 mi NE 3.5 mph - N/A   Overcast
9:53 AM 36.0 °F 33.3 °F 34.0 °F 93% 30.04 in 0.5 mi East 3.5 mph - N/A Fog Fog
10:29 AM 37.4 °F 33.8 °F 35.6 °F 93% 30.03 in 1.0 mi ENE 4.6 mph - N/A   Overcast
10:39 AM 37.4 °F 33.8 °F 35.6 °F 93% 30.02 in 0.8 mi East 4.6 mph - 0.00 in Rain Light Rain
10:50 AM 37.4 °F 33.8 °F 35.6 °F 93% 30.01 in 1.0 mi NNE 4.6 mph - 0.01 in Rain Light Rain
10:53 AM 37.9 °F 34.4 °F 36.0 °F 93% 30.02 in 1.0 mi NNE 4.6 mph - 0.01 in Rain Light Rain
11:53 AM 39.0 °F 35.7 °F 37.0 °F 93% 30.00 in 1.0 mi East 4.6 mph - 0.00 in   Overcast
12:02 PM 39.2 °F 35.9 °F 37.4 °F 93% 29.98 in 0.8 mi East 4.6 mph - N/A   Overcast
12:13 PM 39.2 °F 37.0 °F 37.4 °F 93% 29.97 in 1.0 mi East 3.5 mph - N/A   Overcast
1:53 PM 42.1 °F 38.4 °F 39.0 °F 89% 29.95 in 1.8 mi North 5.8 mph - 0.00 in Rain Light Rain
2:00 PM 42.8 °F 40.1 °F 39.2 °F 87% 29.93 in 2.5 mi NE 4.6 mph - 0.00 in   Overcast
2:24 PM 42.8 °F 38.6 °F 41.0 °F 93% 29.92 in 3.0 mi ENE 6.9 mph - 0.00 in   Overcast
2:39 PM 42.8 °F 38.6 °F 41.0 °F 93% 29.91 in 4.0 mi ENE 6.9 mph - 0.00 in   Overcast
2:53 PM 43.0 °F 39.5 °F 41.0 °F 93% 29.92 in 4.0 mi East 5.8 mph - 0.00 in   Overcast
3:53 PM 44.1 °F 41.5 °F 39.9 °F 85% 29.90 in 5.0 mi East 4.6 mph - N/A   Overcast
4:43 PM 42.8 °F 41.1 °F 41.0 °F 93% 29.87 in 1.8 mi East 3.5 mph - N/A   Overcast
4:53 PM 43.0 °F 41.3 °F 41.0 °F 93% 29.88 in 1.0 mi NNE 3.5 mph - N/A   Overcast
5:03 PM 42.8 °F 41.1 °F 41.0 °F 93% 29.86 in 0.8 mi NE 3.5 mph - N/A   Overcast
5:34 PM 42.8 °F 41.1 °F 39.2 °F 87% 29.87 in 1.0 mi NNE 3.5 mph - N/A   Overcast
5:53 PM 42.1 °F 39.2 °F 39.9 °F 92% 29.88 in 1.0 mi NNE 4.6 mph - N/A   Overcast
6:40 PM 41.0 °F 38.0 °F 39.2 °F 93% 29.86 in 0.8 mi North 4.6 mph - N/A   Overcast
6:45 PM 41.0 °F 38.0 °F 39.2 °F 93% 29.86 in 1.0 mi North 4.6 mph - N/A   Overcast
6:53 PM 41.0 °F 38.0 °F 39.0 °F 93% 29.88 in 0.8 mi NNW 4.6 mph - N/A   Overcast
7:06 PM 41.0 °F 39.0 °F 39.2 °F 93% 29.87 in 1.0 mi North 3.5 mph - 0.01 in   Overcast
7:53 PM 39.9 °F 37.8 °F 39.0 °F 97% 29.88 in 1.2 mi NNW 3.5 mph - 0.01 in   Overcast
8:53 PM 39.0 °F 34.8 °F 37.9 °F 96% 29.84 in 1.5 mi NE 5.8 mph - N/A   Overcast
9:36 PM 39.2 °F 35.9 °F 37.4 °F 93% 29.84 in 2.0 mi NNE 4.6 mph - N/A   Overcast
9:53 PM 39.9 °F 36.7 °F 37.9 °F 93% 29.85 in 2.5 mi NNE 4.6 mph - N/A   Overcast
10:26 PM 39.2 °F 37.0 °F 37.4 °F 93% 29.84 in 3.0 mi North 3.5 mph - N/A   Overcast
10:51 PM 39.2 °F 35.9 °F 37.4 °F 93% 29.82 in 2.5 mi NNE 4.6 mph - N/A   Overcast
10:53 PM 39.9 °F 36.7 °F 37.9 °F 93% 29.83 in 2.5 mi NNE 4.6 mph - N/A   Overcast
11:00 PM 39.2 °F 35.9 °F 37.4 °F 93% 29.82 in 3.0 mi North 4.6 mph - N/A   Overcast
11:12 PM 39.2 °F 35.9 °F 37.4 °F 93% 29.82 in 2.5 mi North 4.6 mph - N/A   Overcast
11:35 PM 39.2 °F 35.0 °F 37.4 °F 93% 29.82 in 3.0 mi North 5.8 mph - N/A   Overcast
11:44 PM 39.2 °F 35.9 °F 37.4 °F 93% 29.82 in 2.5 mi North 4.6 mph - N/A   Overcast
11:53 PM 39.0 °F 36.8 °F 37.9 °F 96% 29.82 in 2.5 mi NNE 3.5 mph - N/A   Overcast